Погода Геокчаы

Погода Геокчаы : погода сейчас, прогноз погоды и архив. Всё, что Вы хотите узнать о погоде Геокчаы!

Поиск расширенной информации на нашем сайте:

Другие новости

Новости СМИ2

Главная страница сайта

Новости сайта

02.10.2013

Напоминаем, что на нашем новом сайте вы можете получить высокодетализированные прогнозы погоды по пунктам России, СНГ и мира (включающие важные для авиации метеовеличины, такие как направление и скорость ветра, видимость, явления погоды, количество и форма облачности, нижняя и верхняя граница облачности), а также ознакомиться с разнообразными материалами по авиационной метеорологии и подборкой полезных ссылок на эту тему.

Сайт Метеоцентр.Азия посвящён разработке технологий оптимизации авиаметеорологического обслуживания, включая проектирование и перспективное создание нескольких автоматизированных авиаметеорологических систем:
- система выпуска высокодетальных прогностических карт явлений погоды для нижнего воздушного пространства по России и ближнему зарубежью;
- система верификации прогнозов TAF (выпускаемых синоптиками официальных АМСГ РФ и ближнего зарубежья) и AUTOTAF (выпускаемых сайтом Метеоцентр.Азия) - выявление ошибок, онлайн-сопоставление с фактической погодой METAR, автоматическое внесение коррективов в прогнозы при резком отклонении фактической погоды от прогноза, подсчёт оправдываемости прогнозов по элементам и в целом;
- система обработки, анализа и отображения авиаметеорологической информации для применения провайдерами метеорологической информации.

Рекомендуем: Наливное полиуретановое резиновое покрытие.

Погода Геокчаы - сегодня

Время (UTC), дата Ветер
(°,м/с) 
Видим.   Явления Облачность Т
(°С)
Тd
(°С)
f(%) Тe
(°С)
Pmin
(гПа)
dP
(гПа)
Po
(мм)
O2
(г/м3)
Тmin Tmax R s Состояние
почвы
15 21.01.17 180 (Ю) 20000 м    3/0 средняя 
[Ac trans]
+4 +2 87 +5  1024.1  0.4  759  301           
18 21.01.17 050 (СВ) 20000 м    ясно 
+1.5 +0.7 94 +2  1024.9  0.7  760  304    +7.9       
21 21.01.17 050 (СВ) 20000 м    ясно 
+0.6 +0.1 96 +1  1025  0.1  760  305           
00 22.01.17 090 (В) 20000 м    ясно 
-0.5 -0.8 98 1024.2  -0.9  759  307           
03 22.01.17 050 (СВ) 20000 м    ясно 
+1.1 +3.4 100 1023.3  -0.9  758  304           
06 22.01.17 270 (З) 20000 м    6/0 верхняя 
[Ci fib]
+2.9 -1.9 71 +2  1023.7  0.5  759  303           
09 22.01.17 270 (З) 20000 м    3/0 верхняя 
[Ci sp]
+7.5 -2.2 50 +6  1023.2  -0.4  759  298           
12 22.01.17 320 (СЗ) 20000 м    3/0 верхняя 
[Ci]
+9.4 -2.5 43 +8  1022.9  -0.2  758  296           
15 22.01.17 180 (Ю) 20000 м    8/6 600 м верхняя 
[St|Ci fib]
+6.8 -1.5 55 +8  1025.9  2.9  761  299           
18 22.01.17 160 (Ю) 20000 м    8/0 средняя 
[Ac cast]
+3.8 +0.7 80 +3  1030.4  4.3  764  303    +9.7       
21 22.01.17 160 (Ю) 20000 м    10/10 600 м 
[Sc]
+3 -0.8 76 +2  1032.5  2.1  765  305           
00 23.01.17 240 (ЮЗ) 20000 м    10/10 600 м 
[Sc]
+1.9 -1.2 80 +3  1033.5  0.9  766  307           
03 23.01.17 160 (Ю) 20000 м    10/10 600 м 
[Sc]
+1.5 -1 83 +2  1033.5  766  307           
06 23.01.17 270 (З) 20000 м    9/9 600 м 
[Sc]
+2.5 -0.5 81 +3  1033.8  0.4  766  306           
09 23.01.17 050 (СВ) 20000 м    6/0 средняя 
[Ac cast]
+5.4 -1.7 60 +5  1032.9  -0.9  766  303           
12 23.01.17 320 (СЗ) 20000 м    6/0 верхняя 
[Ci fib]
+7.9 -0.9 54 +7  1030.5  -2.2  764  299           
15 23.01.17 250 (З) 20000 м    ясно 
+3.5 -0.6 74 +4  1031.3  0.6  764  304           
18 23.01.17 360 (С) 20000 м    ясно 
+1.3 -1.9 79 +1  1033.2  1.8  766  307    +8.3       
21 23.01.17 340 (С) 20000 м    ясно 
+0.7 -2.2 81 1034.4  1.2  767  308           
00 24.01.17 320 (СЗ) 20000 м    ясно 
-0.5 -2.9 84 1034.9  0.4  767  310           
03 24.01.17 360 (С) 20000 м    ясно 
-1.1 -3.4 84 -2  1034.2  -0.7  767  311           
06 24.01.17 360 (С) 20000 м    ясно 
+0.7 -3.6 73 1034.8  0.6  767  309           
09 24.01.17 230 (ЮЗ) 20000 м    ясно 
+7.1 +0.4 62 +8  1033.4  -1.1  766  301           
12 24.01.17 270 (З) 20000 м    ясно 
+9.7 +0.2 52 +10  1029.6  -3.6  763  297           
15 24.01.17 270 (З) 20000 м    ясно 
+5.6 +0.5 70 +6  1028.8  -1  763  301           
Время (UTC), дата Ветер
(°,м/с) 
Видим.   Явления Облачность Т
(°С)
Тd
(°С)
f(%) Тe
(°С)
Pmin
(гПа)
dP
(гПа)
Po
(мм)
O2
(г/м3)
Тmin Tmax R s Состояние
почвы

Для получения пояснительной информации подведите курсор к названию столбца.

ПОГОДА Геокчаы - архив

Всё, что Вы хотите узнать о погоде Геокчаы - удобно и подробно!

Выберите нужную дату (начиная с 1 января 2015* года) и нажмите кнопку "Найти".
Будут отображены архивные сводки погоды по пункту Геокчаы, начиная с указанной даты.


Отображать данные в формате CSV (для использования в таблицах Excel)


Внимание! Наш архив погоды предназначен исключительно для личного некоммерческого использования в познавательных целях. Если Вам необходимы официальные справки о состоянии погоды (для производственных, юридических, коммерческих и т.п. целей), обращайтесь в органы Росгидромета.

*Примечание: данная дата относится к архиву по метеостанциям СССР (Россия, СНГ, Балтия).
Архив по метеостанциям Зарубежной Европы и Азии (кроме Китая) хранится 10 дней, по другим регионам земного шара (Китай, Африка, Америка, Австралия, Океания) - 1 день.

Геокчаы - район местоположения метеостанции


Название, широта, долгота, высота метеостанции:
Геокчаы 40.6°ш. 47.8°д. 95 м над ур. моря [Азербайджан]

Дополнительная информация

В oтличие oт бoльшинства пoгoдных сайтoв мы публикуем пoдрoбную метеoинфoрмацию в детальнoм прoфессиoнальнoм фoрмате.

Характеристики температуры и влажнoсти вoздуха измеряются на высoте 2 м в тени вдали oт зданий и деревьев.
Скoрoсть ветра измеряется на высoте 10 м (на урoвне рoста челoвека скoрoсть ветра ниже в 1.5-2 раза). Если метеoстанция нахoдится в гoрoде или в лесу, тo скoрoсть ветра занижена на 2-4 м/с пo сравнению с oткрытым местoм. Скoрoсть ветра над акватoриями крупных рек и oзёр, а также на вершинах хoлмoв на 2-5 м/с выше, чем в oбычных услoвиях.
Атмoсфернoе давление в разных тoчках местнoсти мoжет значительнo oтличаться oт давления на метеoстанции, в зависимoсти oт услoвий рельефа (при пoдъёме на 10 м давление пoнижается примернo на 1 мм рт.ст.).